BREEZE-M DEB

基本信息
目录编号:
38922
目录名称:
BREEZE-M DEB
国际标识:
2012-044BF
轨道中心:
EARTH
物体状态:
在轨
发射日期:
2012-08-06 UTC
轨道信息
数据来源: 国际轨道数据
星历时间: 2026-09-04T06:15:44+0800
半长轴: 7697.243km
偏心率: 0.1382221
轨道倾角: 50.020°
近地点辐角: 287.096°
升交点赤经: 68.472°
平近点角: 58.337°
近地点: 255.176km
远地点: 2383.036km
周期: 112.011分钟
每日圈数: 12.855826
详细信息
发射场:
TTMTR
轨道高度:
LEO
数据来源:
AOE Integration Group
参考系:
TEME
时间系统:
UTC
历元类型:
SGP4
2D轨道图
3D轨道图
轨道高度分析图
轨道倾角分析图
轨道综合分析图
查看轨道综合分析图